Location: Borealis Mine
(38.3824°N, 118.7610°W)
Time: 18:11:08
(UTC+00:00)

Tiangong - Visible Passes

Search period start: 24 January 2022 00:00
Search period end: 03 February 2022 00:00
Orbit: 383 x 386 km, 41.5° (Epoch: 23 January)

Date Brightness Start Highest point End Pass type
(mag) Time Alt. Az. Time Alt. Az. Time Alt. Az.
25 Jan 4.2 03:23:24 10° SW 03:23:41 12° SW 03:23:41 12° SW visible
26 Jan 2.9 02:24:24 10° SSW 02:26:43 19° SSE 02:27:06 18° SE visible
27 Jan 2.3 03:00:27 10° SW 03:02:40 38° SW 03:02:40 38° SW visible
28 Jan 2.1 02:00:59 10° SW 02:03:53 33° SSE 02:05:55 16° E visible
28 Jan 4.3 03:37:28 10° W 03:38:08 15° W 03:38:08 15° W visible
29 Jan 1.0 02:37:37 10° WSW 02:40:47 88° NNW 02:41:18 59° ENE visible
30 Jan 1.4 01:37:53 10° WSW 01:41:00 57° SSE 01:44:07 10° ENE visible
30 Jan 3.0 03:14:47 10° W 03:16:38 29° WNW 03:16:38 29° WNW visible
31 Jan 1.3 02:14:50 10° W 02:17:58 62° NNW 02:19:42 24° ENE visible
01 Feb 1.7 02:52:01 10° WNW 02:54:56 44° N 02:54:56 44° N visible
02 Feb 1.6 01:52:00 10° W 01:55:05 49° N 01:57:57 11° ENE visible
02 Feb 3.7 03:29:02 10° WNW 03:30:09 20° WNW 03:30:09 20° WNW visible
